Buffalo, NY

12:02 PM EST on December 11, 2019 (GMT -0500)
Buffalo Niagara International

Weather History for KBUF - August, 2019

Change the Weather History Date:

Tuesday, August 6, 2019

  Actual Average Record
Temperature  
Mean Temperature 76 °F 71 °F  
Max Temperature 85 °F 79 °F 94 °F (1947)
Min Temperature 66 °F 62 °F 47 °F (1886)
Degree Days  
Heating Degree Days 0 0  
Month to date heating degree days 0 0  
Since 1 June heating degree days 62 73  
Since 1 July heating degree days 0 9  
Cooling Degree Days 11 6  
Month to date cooling degree days 48 36  
Year to date cooling degree days 416 362  
Since 1 June cooling degree days 408 336  
Growing Degree Days 25 (Base 50)    
Moisture  
Dew Point 63 °F    
Average Humidity 66    
Maximum Humidity 81    
Minimum Humidity 51    
Precipitation  
Precipitation 0.01 in 0.11 in 2.35 in (1977)
Month to date precipitation 0.01 0.66  
Year to date precipitation 24.76 22.56  
Snow  
Snow 0.00 in 0.00 in 0.00 in ()
Month to date snowfall 0.0 0.0  
Since 1 June snowfall 0.0 0.0  
Since 1 July snowfall 0.0 0.0  
Snow Depth 0.00 in    
Sea Level Pressure  
Sea Level Pressure 29.79 in    
Wind  
Wind Speed 10 mph (SW)    
Max Wind Speed 30 mph    
Max Gust Speed 39 mph    
Visibility 10 miles    
Events Rain , Thunderstorm    
T = Trace of Precipitation, MM = Missing Value Source: NWS Daily Summary

Daily Weather History Graph

Daily Weather History Graph

Search for Another Location

Airport or City:

Astronomy

Aug. 06, 2019 Rise Set
Actual Time 6:10 AM EDT 8:29 PM EDT
Civil Twilight 5:39 AM EDT 9:01 PM EDT
Nautical Twilight 5:00 AM EDT 9:40 PM EDT
Astronomical Twilight 4:16 AM EDT 10:23 PM EDT
Moon 12:43 PM EDT (8/6) No Moon Set
Length of Visible Light 15h 22m
Length of Day
14h 19m
Waxing Crescent, 38% of the Moon is Illuminated
Aug 6
Waxing Crescent
Aug 7
First Quarter
Aug 15
Full
Aug 23
Last Quarter
Aug 30
New

Hourly Weather History & Observations

Time (EDT) Temp. Heat Index Dew Point Humidity Pressure Visibility Wind Dir Wind Speed Gust Speed Precip Events Conditions
12:54 AM 71.1 °F - 62.1 °F 73% 29.86 in 10.0 mi South 5.8 mph - N/A   Partly Cloudy
1:54 AM 69.1 °F - 62.1 °F 78% 29.84 in 10.0 mi South 6.9 mph - N/A   Partly Cloudy
2:54 AM 68.0 °F - 61.0 °F 78% 29.82 in 10.0 mi South 5.8 mph - N/A   Partly Cloudy
3:54 AM 68.0 °F - 61.0 °F 78% 29.81 in 10.0 mi South 5.8 mph - N/A   Partly Cloudy
4:54 AM 66.9 °F - 61.0 °F 81% 29.80 in 10.0 mi South 5.8 mph - N/A   Partly Cloudy
5:54 AM 66.9 °F - 61.0 °F 81% 29.80 in 10.0 mi South 6.9 mph - N/A   Partly Cloudy
6:54 AM 69.1 °F - 62.1 °F 78% 29.80 in 10.0 mi South 8.1 mph - N/A   Partly Cloudy
7:54 AM 73.0 °F - 63.0 °F 71% 29.79 in 10.0 mi South 9.2 mph - N/A   Partly Cloudy
8:54 AM 78.1 °F - 62.1 °F 58% 29.79 in 10.0 mi SW 11.5 mph - N/A   Partly Cloudy
9:54 AM 80.1 °F 81.7 °F 64.0 °F 58% 29.79 in 10.0 mi WSW 12.7 mph - N/A   Clear
9:57 AM 80.1 °F 81.7 °F 64.0 °F 58% 29.80 in 10.0 mi SW 13.8 mph - N/A   Partly Cloudy
10:54 AM 81.0 °F 82.7 °F 64.9 °F 58% 29.78 in 10.0 mi West 15.0 mph - N/A   Scattered Clouds
11:54 AM 82.9 °F 84.4 °F 64.0 °F 53% 29.78 in 10.0 mi SW 16.1 mph 25.3 mph N/A   Scattered Clouds
12:44 PM 84.0 °F 85.8 °F 64.9 °F 53% 29.78 in 10.0 mi SW 18.4 mph 23.0 mph N/A   Mostly Cloudy
12:54 PM 84.9 °F 86.6 °F 64.9 °F 51% 29.77 in 10.0 mi WNW 20.7 mph 26.5 mph N/A   Mostly Cloudy
1:04 PM 78.1 °F - 61.0 °F 56% 29.78 in 10.0 mi NNW 16.1 mph - N/A   Mostly Cloudy
1:13 PM 78.1 °F - 61.0 °F 56% 29.78 in 10.0 mi NW 13.8 mph - N/A Thunderstorm Thunderstorm
1:54 PM 70.0 °F - 64.0 °F 81% 29.79 in 10.0 mi NW 17.3 mph 25.3 mph 0.01 in Rain , Thunderstorm Light Thunderstorms and Rain
2:24 PM 70.0 °F - 64.0 °F 81% 29.77 in 10.0 mi West 5.8 mph - 0.00 in Rain Light Rain
2:54 PM 78.1 °F - 64.9 °F 64% 29.75 in 10.0 mi West 9.2 mph - 0.00 in   Mostly Cloudy
3:54 PM 81.0 °F 83.0 °F 66.0 °F 60% 29.73 in 10.0 mi SSW 12.7 mph - 0.00 in Rain Light Rain
4:54 PM 79.0 °F - 63.0 °F 58% 29.75 in 10.0 mi SSW 15.0 mph - 0.00 in   Mostly Cloudy
5:54 PM 79.0 °F - 66.9 °F 66% 29.76 in 10.0 mi SW 12.7 mph 23.0 mph N/A   Mostly Cloudy
6:54 PM 73.0 °F - 63.0 °F 71% 29.77 in 10.0 mi SW 15.0 mph 28.8 mph 0.00 in   Overcast
7:34 PM 73.0 °F - 64.9 °F 76% 29.80 in 10.0 mi NW 8.1 mph - N/A   Overcast
7:54 PM 72.0 °F - 62.1 °F 71% 29.78 in 10.0 mi WNW 4.6 mph - N/A   Overcast
8:54 PM 73.0 °F - 64.0 °F 73% 29.76 in 10.0 mi SW 5.8 mph - N/A   Overcast
9:46 PM 73.0 °F - 68.0 °F 84% 29.77 in 10.0 mi WSW 5.8 mph - 0.00 in Rain Light Rain
10:54 PM 70.0 °F - 63.0 °F 78% 29.78 in 10.0 mi South 4.6 mph - 0.00 in Rain Light Rain
11:23 PM 70.0 °F - 64.0 °F 81% 29.79 in 10.0 mi South 5.8 mph - 0.00 in Rain Light Rain
11:54 PM 69.1 °F - 64.0 °F 84% 29.78 in 10.0 mi South 8.1 mph - 0.00 in   Overcast